Location: Sihaung
(22.8641°N, 94.0549°E)
Time: 17:53:59
(UTC+00:00)

Sich 1 - Pass Details

Date: 03 March 2021
Orbit: 593 x 626 km, 82.5° (Epoch: 13 April)

Event Time Altitude Azimuth Distance (km) Brightness Sun altitude
Rises 22:47:56 0° 1° (N) 2,896 6.5 -18.1°
Reaches altitude 10° 22:50:13 10° 6° (N) 1,984 5.7 -17.5°
Maximum altitude 22:54:31 54° 84° (E) 749 3.8 -16.5°
Drops below altitude 10° 22:58:46 10° 161° (SSE) 1,958 5.9 -15.6°
Sets 23:01:00 0° 166° (SSE) 2,854 6.7 -15.0°
